AirNav   Everest Fuels
 
 311 users online  

3CK Lake in the Hills Airport
Chicago/Lake In The Hills, Illinois, USA

GOING TO CHICAGO/LAKE IN THE HILLS?


FAA INFORMATION EFFECTIVE 31 DECEMBER 2020

Location

FAA Identifier: 3CK
Lat/Long: 42-12-24.5133N 088-19-22.7894W
42-12.408555N 088-19.379823W
42.2068092,-88.3229971
(estimated)
Elevation: 887.3 ft. / 270.4 m (surveyed)
Variation: 02W (2000)
From city: 38 miles NW of central business district of the associated city
Time zone: UTC -6 (UTC -5 during Daylight Saving Time)
Zip code: 60102

Airport Operations

Airport use: Open to the public
Activation date: 07/1958
Control tower: no
ARTCC: CHICAGO CENTER
FSS: KANKAKEE FLIGHT SERVICE STATION
NOTAMs facility: IKK (NOTAM-D service available)
Attendance: MAY-OCT MON-SUN 0800-1700, NOV-APR MON-SUN 0900-1600
Wind indicator: lighted
Segmented circle: no
Lights: ACTVT LIRL RWY 08/26 - CTAF.
Beacon: white-green (lighted land airport)
Operates sunset to sunrise.

Airport Communications

CTAF/UNICOM: 123.05
CHICAGO APPROACH: 120.55
CHICAGO DEPARTURE: 120.55
WX AWOS-3 at 06C (16 nm SE): 128.275 ((847) 895-2887)
WX ASOS at DPA (18 nm S): PHONE 630-587-3668
WX ASOS at PWK (20 nm E): PHONE 847-465-0291

Nearby radio navigation aids

VOR radial/distance  VOR name  Freq  Var
OBKr269/16.5NORTHBROOK VOR/DME113.0002W
DPAr002/19.0DUPAGE VOR/DME108.4002E
RFDr091/39.0ROCKFORD VOR/DME110.8001E
JOTr358/39.6JOLIET VOR/DME112.3002E

Airport Services

Fuel available: 100LL JET-A
Parking: hangars and tiedowns
Airframe service: MAJOR
Powerplant service: MAJOR
Bottled oxygen: HIGH/LOW
Bulk oxygen: HIGH/LOW

Runway Information

Runway 8/26

Dimensions: 3801 x 50 ft. / 1159 x 15 m
Surface: asphalt, in good condition
Weight bearing capacity: 
Single wheel: 12.5
Double wheel: 38.0
Runway edge lights: low intensity
RUNWAY 8  RUNWAY 26
Latitude: 42-12.352603N42-12.464505N
Longitude: 088-19.793958W088-18.965687W
Elevation: 884.7 ft.885.1 ft.
Traffic pattern: leftleft
Runway heading: 082 magnetic, 080 true262 magnetic, 260 true
Displaced threshold: 360 ft.382 ft.
Markings: nonprecision, in good conditionnonprecision, in good condition
Visual slope indicator: 2-light PAPI on left (3.00 degrees glide path)2-light PAPI on right (3.00 degrees glide path)
Runway end identifier lights: no
Touchdown point: yes, no lightsyes, no lights

Airport Ownership and Management from official FAA records

Ownership: Publicly-owned
Owner: VILLAGE OF LAKE IN THE HILLS
600 HARVEST GATE
LAKE IN THE HILLS, IL 60156
Phone 847-960-7400
Manager: MICHAEL PERANICH
9010 HALIGUS ROAD
LAKE IN THE HILLS, IL 60156
Phone 815-479-7960
EXT: 2

Airport Operational Statistics

Aircraft based on the field: 106
Single engine airplanes: 96
Multi engine airplanes: 7
Jet airplanes: 2
Helicopters: 1
    
Aircraft operations: avg 93/day *
56% transient general aviation
44% local general aviation
* for 12-month period ending 30 August 2019

Additional Remarks

A57-08 APCH RATIO 27:1 TO DSPLCD THR.
FOR VFR WX ADVISORY 5 CLICKS CTAF. PHONE 815-444-1729
FOR CD CTC CHICAGO APCH AT 847-289-0926.

Instrument Procedures

NOTE: All procedures below are presented as PDF files. If you need a reader for these files, you should download the free Adobe Reader.

NOT FOR NAVIGATION. Please procure official charts for flight.
FAA instrument procedures published for use from 31 December 2020 at 0901Z to 28 January 2021 at 0900Z.

 
IAPs - Instrument Approach Procedures
RNAV (GPS) RWY 08   download (232KB)
RNAV (GPS) RWY 26   download (219KB)
VOR RWY 26   download (261KB)
NOTE: Special Take-Off Minimums/Departure Procedures apply   download (201KB)

Other nearby airports with instrument procedures:

10C - Galt Field Airport (12 nm N)
C81 - Campbell Airport (13 nm NE)
KDPA - DuPage Airport (18 nm S)
KPWK - Chicago Exec Airport (20 nm E)
KORD - Chicago O'Hare International Airport (23 nm SE)
 
Loc | Ops | Rwys | IFR | FBO | Links
Com | Nav | Svcs | Stats | Notes
Area around 3CK (Lake in the Hills Airport)
 
Road maps at: MapQuest Bing Google
 
Aerial photo
WARNING: Photo may not be current or correct
Aerial photo of 3CK (Lake in the Hills Airport)
Photo taken 17-May-2018
looking south from 2500 ft.

Do you have a better or more recent aerial photo of Lake in the Hills Airport that you would like to share? If so, please send us your photo.

 
Sectional chart

 
Airport diagram
CAUTION: Diagram may not be current
Diagram of 3CK (Lake in the Hills Airport)
 
Airport distance calculator
Flying to Lake in the Hills Airport? Find the distance to fly.

From to 3CK

Sunrise and sunset
Times for 27-Jan-2021
 Local
(UTC-6)
 Zulu
(UTC)
Morning civil twilight06:4212:42
Sunrise07:1213:12
Sunset17:0023:00
Evening civil twilight17:3023:30

Current date and time
Zulu (UTC)  27-Jan-2021 10:12:14
Local (UTC-6)  27-Jan-2021 04:12:14
 
METAR
K06C 
16nm SE 
270955Z AUTO 36006KT 10SM BKN029 M07/M11 A3026 RMK AO2 T10711108
KDPA 
18nm S 
270952Z 36010KT 10SM BKN031 M08/M12 A3025 RMK AO2 SLP256 T10781122
KPWK 
20nm E 
270952Z AUTO 34008KT 10SM OVC032 M06/M11 A3028 RMK AO2 SLP264 T10561106
KORD 
22nm SE 
270951Z 35008KT 10SM BKN033 M06/M10 A3027 RMK AO2 SLP259 T10611100 $
KDKB 
23nm SW 
270955Z AUTO 36008KT 10SM CLR M11/M13 A3026 RMK AO2 T11111128
KUGN 
24nm NE 
270955Z AUTO 33007KT 10SM BKN030 M07/M12 A3028 RMK AO2 SLP270 T10721117 $
KARR 
27nm S 
270952Z AUTO 02011KT 10SM CLR M08/M13 A3024 RMK AO2 SLP252 T10831128 PWINO FZRANO $
KBUU 
29nm N 
270955Z AUTO 36007KT 10SM OVC026 M10/M13 A3030 RMK AO2 T11011129 PWINO
KENW 
29nm NE 
270953Z AUTO 34009KT 10SM OVC027 M07/M12 A3029 RMK AO2 SLP268 T10671117 $
TAF
KDPA 
18nm S 
270524Z 2706/2806 35011KT P6SM BKN020 FM271800 36011KT P6SM SCT020 BKN035 FM280000 34008KT P6SM SCT035
KORD 
22nm SE 
270524Z 2706/2812 35011G17KT P6SM BKN020 FM271100 01012KT P6SM -SN OVC020 TEMPO 2714/2716 3SM -SHSN BKN015 FM271800 36012KT P6SM SCT020 BKN035 FM280000 34009KT P6SM SCT035
NOTAMs
Click for the latest NOTAMs
NOTAMs are issued by the DoD/FAA and will open in a separate window not controlled by AirNav.

 

 
 

FBO, Fuel Providers, and Aircraft Ground Support

  
 Business Name 
 
 Contact 
 
 Services / Description 
 
Fuel Prices
 
Comments
  
 Village of Lake in the Hills
815-479-7960
[web site]
[email]
Airport management, Aviation fuel, Aircraft parking (ramp or tiedown), Hangars, Hangar leasing / sales, Passenger terminal and lounge, ...

More info about Village of Lake in the Hills
Phillips 66
100LL Jet A
FS $4.43 $3.14 
SS $3.78 $2.55 
 Updated 12-Jan-2021
 
   2 read write
FS=Full service
SS=Self service
Update Fuel Prices
 

Aviation Businesses, Services, and Facilities

  
 Business Name 
 
 Contact 
 
 Services / Description 
 
Distance
 
Comments
  
Blue Skies Flying Services, Inc. 815-356-8121
[web site]
[email]
Hangars, Flight training, Aircraft rental, Aircraft maintenance, Aviation accessories, Pilot supplies, Rental cars delivered, Courtesy transportation, ...
 
PSI FAA Test Center   FAA Authorized Chart Agent  
 
More info about Blue Skies Flying Services, Inc.
on airport  
   write
 

Would you like to see your business listed on this page?

 If your business provides an interesting product or service to pilots, flight crews, aircraft, or users of the Lake in the Hills Airport, you should consider listing it here.  To start the listing process, click on the button below
 
Add a business
 

Other Pages about Lake in the Hills Airport

www.lith.org/airport.html
 
Update a link
 
Copyright © AirNav, LLC. All rights reserved. Privacy Policy  Contact